Pagina principale
METAR-TAF:

METAR-TAF

Aeroporti :

Harrisburg, Pennsylvania, Stati Uniti

latitudine: 40-13-02N, longitudine: 076-51-05W, altezza: 106 m

Osservazione

Il bollettino è stato emesso 29 minuti fa, alle 07:56 UTC
Vento 3 kt da ovest/nord-ovest
Temperature 24°C
Umidità 74%
Pressione 1017 hPa
Visibilità: 12.9 km
Cielo sereno

METAR: KCXY 160756Z AUTO 30003KT 8SM CLR 24/19 A3004 RMK AO2 SLP171 T02390189

Ora: 04:25 (08:25 UTC)


TAF: mancante

Osservazioni e previsioni meteorologiche di più di 4000 aeroporti (messaggi METAR e TAF).

Le stazioni disponibili sono rappresentate dai dischi gialli e rossi sulla carta.

Puntare il mouse per vedere il nome della stazione.

Clicca sopra per visualizzare le osservazioni e previsioni meteorologiche.

Per cambiare la mappa : fare clic sui pulsanti verdi con una croce nera per ingrandire, il pulsante verde con un trattino per diminuire, o sulla freccia verde per le mappe adiacenti.


METAR-TAF: